Skip Page Navigation
NASA JPL Caltech
NASA Logo - Jet Propulsion Laboratory + View the NASA Portal
+ Near-Earth Object (NEO) Program
Search JPL
JPL Home Earth Solar System Stars & Galaxies Technology
JPL Solar System Dynamics
BODIES ORBITS EPHEMERIDES TOOLS PHYSICAL DATA DISCOVERY FAQ SITE MAP
JPL Small-Body Database Browser
Search: [ help ]  
(2002 LT38)
Classification: Aten [NEO, PHA]          SPK-ID: 3127406
Ephemeris | Orbit Diagram | Orbital Elements | Physical Parameters | Close-Approach Data ]

[ hide orbit diagram ]
Orbit Diagram
Note: Make sure you have Java enabled on your browser to see the applet. This applet is provided as a 3D orbit visualization tool. The applet was implemented using 2-body methods, and hence should not be used for determining accurate long-term trajectories (over several years or decades) or planetary encounter circumstances. For accurate long-term ephemerides, please instead use our Horizons system.
Orbit Viewer

Additional Notes: the orbits shown in the applet are color coded. The planets are white lines, and the asteroid/comet is a blue line. The bright white line indicates the portion of the orbit that is above the ecliptic plane, and the darker portion is below the ecliptic plane. Likewise for the asteroid/comet orbit, the light blue indicates the portion above the ecliptic plane, and the dark blue the portion below the ecliptic plane.

Orbit Viewer applet originally written and kindly provided by Osamu Ajiki (AstroArts), and further modified by Ron Baalke (JPL).


Orbital Elements at Epoch 2456400.5 (2013-Apr-18.0) TDB
Reference: JPL 32 (heliocentric ecliptic J2000)
 Element Value Uncertainty (1-sigma)   Units 
e .31384885717262 4.0708e-07  
a .8448280235124028 5.5293e-09 AU
q .5796797138256319 3.4627e-07 AU
i 6.202326363431603 2.5644e-05 deg
node 259.5059236967595 2.5438e-05 deg
peri 162.7332333339402 5.5864e-05 deg
M 191.6107546213387 0.00011535 deg
tp 2456533.166949642629
(2013-Aug-28.66694964)
9.1572e-05 JED
period 283.6291698080059
0.78
2.7845e-06
7.624e-09
d
yr
n 1.269262961364979 1.2461e-08 deg/d
Q 1.109976333199174 7.2646e-09 AU
  Orbit Determination Parameters
   # obs. used (total)      123  
   data-arc span      2583 days (7.07 yr)  
   first obs. used      2002-06-10  
   last obs. used      2009-07-06  
   planetary ephem.      DE405  
   SB-pert. ephem.      SB405-CPV-2  
   condition code      0  
   fit RMS      .72154  
   data source      ORB  
   producer      Otto Matic  
   solution date      2011-Sep-14 19:46:18  

Additional Information
 Earth MOID = .0344198 AU 
 T_jup = 6.920 
[ show covariance matrix ]

Ephemeris | Orbit Diagram | Orbital Elements | Physical Parameters | Close-Approach Data ]

Physical Parameter Table
Parameter Symbol Value Units Sigma Reference Notes
absolute magnitude H 20.24 mag .70905 32 autocmod 2.5a

[ show close-approach data ]
Ephemeris | Orbit Diagram | Orbital Elements | Physical Parameters | Close-Approach Data ]
ABOUT SSD CREDITS/AWARDS PRIVACY/COPYRIGHT GLOSSARY LINKS
FirstGov 2013-Jun-18 21:58 UT
(server date/time)  
NASA Home Page
Site Manager:   Donald K. Yeomans
Webmaster  Alan B. Chamberlin